Regional Weather Roundup
Issued by NWS

Home | Current Version | Previous Version | Text Only | Print | Product List | Glossary On
Versions: 1 2 3 4 5 6 7 8 9 10 11 12 13 14 15 16 17 18 19 20 21 22 23 24 25 26 27 28 29 30 31 32 33 34 35 36 37 38 39 40 41 42 43 44 45 46 47 48 49 50
000
ASUS45 KCYS 281010
RWRWY

WYOMING REGIONAL WEATHER ROUNDUP
NATIONAL WEATHER SERVICE CHEYENNE WY
400 AM MDT THU MAY 28 2015

NOTE:  "FAIR" INDICATES FEW OR NO CLOUDS BELOW 12,000 FEET
WITH NO SIGNIFICANT WEATHER AND/OR OBSTRUCTIONS TO VISIBILITY.

WYZ001-281100-
YELLOWSTONE NATIONAL PARK

CITY           SKY/WX    TMP DP  RH WIND       PRES   REMARKS
LK YELLOWSTONE   N/A     37  35  92 CALM      30.16S
W YELLOWSTONE  NOT AVBL

$$
WYZ002>013-054>058-071-098>099-281100-
NORTHERN WYOMING

CITY           SKY/WX    TMP DP  RH WIND       PRES   REMARKS
JACKSON        CLOUDY    43  43 100 SW3       30.13F
CODY           FAIR      48  45  87 SW5       30.02F
GREYBULL       CLOUDY    56  47  71 NE7       29.98F
WORLAND        CLOUDY    52  48  86 S6        30.00F
SHERIDAN       MOCLDY    48  46  93 CALM      29.98S
BUFFALO        CLOUDY    51  45  79 W7        30.02R
GILLETTE       MOCLDY    50  48  93 SW6       29.99R
HULETT         CLOUDY    52  50  93 S6        29.96R
NEWCASTLE      PTSUNNY   54  46  76 E5        29.98S

$$
WYZ014>020-022>026-101>103-281100-
CENTRAL WYOMING

CITY           SKY/WX    TMP DP  RH WIND       PRES   REMARKS
BIG PINEY      MOCLDY    42  39  89 N8        30.14S
PINEDALE       CLOUDY    41  39  93 W3        30.16S
DUBOIS         CLOUDY    41  34  75 NW13      30.10S
LANDER         FAIR      47  38  71 NW5       30.04R
RIVERTON       FAIR      48  44  86 NE6       30.04S
CASPER         MOCLDY    48  42  80 W3        30.03S
DOUGLAS        FAIR      47  44  90 CALM      30.04R

$$
WYZ021-027>030-104>119-281100-
SOUTHERN WYOMING

CITY           SKY/WX    TMP DP  RH WIND       PRES   REMARKS
EVANSTON       FAIR      39  37  92 SW9       30.17S WCI  33
KEMMERER       FAIR      37  36  93 CALM      30.17S
FORT BRIDGER   SUNNY     43  41  93 W14       30.19S
ROCK SPRINGS   CLOUDY    45  40  82 SW12      30.14S
DIXON          CLOUDY    49  44  85 S5        30.17S
RAWLINS        CLOUDY    47  41  80 SW12      30.12R
SARATOGA       CLOUDY    45  41  87 S6        30.15S
LARAMIE        FAIR      42  38  85 S5        30.13F
CHEYENNE       FAIR      48  47  96 W5        30.08F
TORRINGTON     FAIR      53  52  96 SE7       29.99F
PINE BLUFFS    FAIR      50  50 100 W6        30.06R

$$



USA.gov is the U.S. government's official web portal to all federal, state and local government web resources and services.